NORTHEAST SUFFOLK  -  Winter Weather Advisory Winter Weather Advisory        NORTHERN NASSAU  -  Winter Weather Advisory Winter Weather Advisory        NORTHWEST SUFFOLK  -  Winter Weather Advisory Winter Weather Advisory        SOUTHEAST SUFFOLK  -  Winter Weather Advisory Winter Weather Advisory        SOUTHERN NASSAU  -  Winter Weather Advisory Winter Weather Advisory        SOUTHWEST SUFFOLK  -  Winter Weather Advisory Winter Weather Advisory      

Active alerts

Northern Nassau
  Details for Northern Nassau Winter Weather Advisory
Southern Nassau
  Details for Southern Nassau Winter Weather Advisory
Northwest Suffolk
  Details for Northwest Suffolk Winter Weather Advisory
Southwest Suffolk
  Details for Southwest Suffolk Winter Weather Advisory
Northeast Suffolk
  Details for Northeast Suffolk Winter Weather Advisory
Southeast Suffolk
  Details for Southeast Suffolk Winter Weather Advisory


WXM80 ListenWXM80 Stop

You find our weather info also at:

UK Metoffice

WeatherCloud

Weather Underground

Northeastern Weather Network

AWEKAS

Citizen Weather Observer Program (CWOP)

HAMweather, WeatherForYou, PWS Weather


Weather Underground History page Text

Daily Summary for August 24, 2017 Units:  Metric    English   Both
« Previous Day
Next Day »
Daily Weekly Monthly Yearly Custom
  High: Low: Average:
Temperature: 29.1 °C 16 °C 21.8 °C
Dew Point: 18.3 °C 13 °C 15.6 °C
Humidity: 96 % 38 % 71 %
Wind Speed: 8.4 km/h 0 km/h 1.8 km/h
Wind Gust: 16.1 km/h - -
Wind:- - SSW
Pressure: 1013.1 hPa 1009.7 hPa -
Precipitation: 0 mm    
Historical Graphs
 
 
Tabular Data for August 24, 2017
Time Temperature Dew Point Pressure Wind Wind Speed Wind Gust Humidity Rainfall Rate (Hourly)
00:02 19.3 °C 16.3 °C 1009.7 hPa Calm     83 % 0 mm
00:07 19.1 °C 16.2 °C 1009.7 hPa Calm     83 % 0 mm
00:13 19 °C 16.1 °C 1009.7 hPa Calm     83 % 0 mm
00:18 18.9 °C 15.9 °C 1009.7 hPa Calm     83 % 0 mm
00:23 18.8 °C 16 °C 1010 hPa Calm     84 % 0 mm
00:28 18.7 °C 15.9 °C 1009.7 hPa Calm     84 % 0 mm
00:38 18.5 °C 15.9 °C 1009.7 hPa Calm   1.9 km/h 85 % 0 mm
00:43 18.4 °C 16 °C 1010 hPa Calm     86 % 0 mm
00:48 18.3 °C 15.9 °C 1010 hPa Calm     86 % 0 mm
00:53 18.2 °C 15.8 °C 1010 hPa Calm     86 % 0 mm
00:58 18.1 °C 15.7 °C 1010 hPa Calm     86 % 0 mm
01:03 18.1 °C 15.7 °C 1010 hPa Calm     86 % 0 mm
01:08 17.9 °C 15.6 °C 1010 hPa Calm     86 % 0 mm
01:13 17.9 °C 15.7 °C 1010 hPa Calm     87 % 0 mm
01:18 17.8 °C 15.7 °C 1010 hPa Calm     87 % 0 mm
01:23 17.8 °C 15.6 °C 1009.7 hPa Calm     87 % 0 mm
01:28 17.7 °C 15.7 °C 1009.7 hPa Calm     88 % 0 mm
01:33 17.7 °C 15.7 °C 1009.7 hPa Calm     88 % 0 mm
01:38 17.6 °C 15.6 °C 1009.7 hPa Calm     88 % 0 mm
01:43 17.5 °C 15.5 °C 1009.7 hPa Calm     88 % 0 mm
01:49 17.4 °C 15.4 °C 1009.7 hPa Calm     88 % 0 mm
01:54 17.3 °C 15.5 °C 1009.7 hPa Calm     89 % 0 mm
01:59 17.3 °C 15.4 °C 1009.7 hPa Calm     89 % 0 mm
02:04 17.2 °C 15.4 °C 1009.7 hPa Calm   1.9 km/h 89 % 0 mm
02:09 17.2 °C 15.3 °C 1009.7 hPa Calm     89 % 0 mm
02:14 17.1 °C 15.3 °C 1009.7 hPa Calm     89 % 0 mm
02:19 17.1 °C 15.4 °C 1009.7 hPa Calm     90 % 0 mm
02:24 17 °C 15.3 °C 1009.7 hPa Calm     90 % 0 mm
02:29 16.9 °C 15.3 °C 1009.7 hPa Calm     90 % 0 mm
02:34 16.9 °C 15.2 °C 1009.7 hPa Calm     90 % 0 mm
02:39 16.8 °C 15.2 °C 1009.7 hPa Calm     90 % 0 mm
02:44 16.8 °C 15.1 °C 1009.7 hPa Calm     90 % 0 mm
02:49 16.7 °C 15.1 °C 1009.7 hPa Calm     90 % 0 mm
02:54 16.7 °C 15.1 °C 1009.7 hPa Calm     90 % 0 mm
02:59 16.7 °C 15 °C 1009.7 hPa Calm     90 % 0 mm
03:04 16.6 °C 14.9 °C 1009.7 hPa Calm     90 % 0 mm
03:09 16.6 °C 14.9 °C 1009.7 hPa Calm     90 % 0 mm
03:14 16.5 °C 14.8 °C 1010 hPa Calm     90 % 0 mm
03:19 16.4 °C 14.8 °C 1009.7 hPa Calm     90 % 0 mm
03:24 16.4 °C 14.8 °C 1009.7 hPa Calm     90 % 0 mm
03:29 16.4 °C 14.9 °C 1010 hPa Calm     91 % 0 mm
03:34 16.3 °C 14.8 °C 1009.7 hPa Calm     91 % 0 mm
03:39 16.3 °C 14.8 °C 1009.7 hPa WNW 0.2 km/h 1.9 km/h 91 % 0 mm
03:44 16.3 °C 14.8 °C 1009.7 hPa Calm     91 % 0 mm
03:49 16.2 °C 14.8 °C 1009.7 hPa Calm     91 % 0 mm
03:55 16.2 °C 14.8 °C 1009.7 hPa Calm     91 % 0 mm
03:59 16.2 °C 14.7 °C 1009.7 hPa Calm     91 % 0 mm
04:05 16.2 °C 14.7 °C 1010 hPa Calm     91 % 0 mm
04:10 16.2 °C 14.9 °C 1009.7 hPa Calm     92 % 0 mm
04:15 16.1 °C 14.8 °C 1010 hPa Calm     92 % 0 mm
04:20 16.1 °C 14.8 °C 1009.7 hPa Calm     92 % 0 mm
04:25 16.1 °C 14.8 °C 1010 hPa Calm     92 % 0 mm
04:30 16.1 °C 14.8 °C 1010 hPa Calm     92 % 0 mm
04:35 16 °C 14.7 °C 1010 hPa Calm     92 % 0 mm
04:40 16 °C 14.7 °C 1010 hPa Calm     92 % 0 mm
04:45 16 °C 14.7 °C 1010 hPa WNW 1 km/h 1.9 km/h 92 % 0 mm
04:50 16 °C 14.9 °C 1010 hPa WNW 2.7 km/h 5.6 km/h 93 % 0 mm
04:55 16 °C 14.9 °C 1010 hPa WNW 1.4 km/h 3.2 km/h 93 % 0 mm
05:00 16.1 °C 15.1 °C 1010.4 hPa WNW 1.1 km/h 3.7 km/h 94 % 0 mm
05:05 16.2 °C 15.2 °C 1010.4 hPa WNW 2.6 km/h 5.6 km/h 94 % 0 mm
05:10 16.3 °C 15.5 °C 1010.4 hPa WNW 0.2 km/h 5.6 km/h 95 % 0 mm
05:15 16.4 °C 15.7 °C 1010.4 hPa Calm     95 % 0 mm
05:16 16.4 °C 15.7 °C 1010.4 hPa Calm     95 % 0 mm
05:21 16.6 °C 15.8 °C 1010.4 hPa Calm     95 % 0 mm
05:26 16.6 °C 15.8 °C 1010.4 hPa Calm     95 % 0 mm
05:27 16.6 °C 15.8 °C 1010.4 hPa Calm     95 % 0 mm
05:32 16.7 °C 15.9 °C 1010.4 hPa Calm     95 % 0 mm
05:37 16.7 °C 15.9 °C 1010.4 hPa Calm     95 % 0 mm
05:42 16.7 °C 15.9 °C 1010.7 hPa Calm     95 % 0 mm
05:47 16.7 °C 15.9 °C 1010.7 hPa Calm     95 % 0 mm
05:52 16.7 °C 15.9 °C 1010.7 hPa Calm   1.9 km/h 95 % 0 mm
05:57 16.6 °C 15.8 °C 1010.7 hPa Calm     95 % 0 mm
06:02 16.6 °C 15.8 °C 1010.7 hPa Calm     95 % 0 mm
06:07 16.6 °C 15.8 °C 1011.1 hPa Calm   1.9 km/h 95 % 0 mm
06:12 16.6 °C 15.8 °C 1011.1 hPa Calm     95 % 0 mm
06:17 16.6 °C 15.8 °C 1011.1 hPa WNW 4.5 km/h 6.4 km/h 95 % 0 mm
06:22 16.6 °C 15.8 °C 1011.1 hPa WNW 0.2 km/h   95 % 0 mm
06:27 16.6 °C 15.8 °C 1011.1 hPa Calm     95 % 0 mm
06:32 16.7 °C 15.9 °C 1011.1 hPa NNE 3.1 km/h 6.4 km/h 95 % 0 mm
06:37 16.8 °C 16 °C 1011.1 hPa NNE 0.3 km/h 1.9 km/h 95 % 0 mm
06:41 16.8 °C 16 °C 1011.4 hPa Calm     95 % 0 mm
06:46 16.8 °C 16.2 °C 1011.4 hPa Calm     96 % 0 mm
06:51 16.9 °C 16.1 °C 1011.4 hPa NW 1.1 km/h 5.6 km/h 95 % 0 mm
07:02 16.9 °C 16.1 °C 1011.4 hPa NNE 1.4 km/h 7.4 km/h 95 % 0 mm
07:06 17.1 °C 16.2 °C 1011.4 hPa North 2.6 km/h 5.6 km/h 95 % 0 mm
07:11 17.2 °C 16.3 °C 1011.4 hPa North 0.2 km/h 5.6 km/h 95 % 0 mm
07:16 17.3 °C 16.5 °C 1011.4 hPa NNE 4 km/h 5.6 km/h 95 % 0 mm
07:21 17.4 °C 16.4 °C 1011.4 hPa NNE 1.1 km/h 5.6 km/h 94 % 0 mm
07:26 17.6 °C 16.6 °C 1011.7 hPa NNE 0.2 km/h 1.9 km/h 94 % 0 mm
07:31 17.7 °C 16.3 °C 1011.7 hPa NNE 0.5 km/h 3.2 km/h 92 % 0 mm
07:36 17.8 °C 16.3 °C 1011.7 hPa NNE 5.3 km/h 7.4 km/h 91 % 0 mm
07:41 18.1 °C 16.4 °C 1012.1 hPa NNW 2.7 km/h 7.4 km/h 90 % 0 mm
07:46 18.2 °C 16.4 °C 1012.1 hPa NNW 1.9 km/h 3.7 km/h 89 % 0 mm
07:51 18.4 °C 16.4 °C 1012.1 hPa NNE 0.6 km/h 3.7 km/h 88 % 0 mm
07:56 18.6 °C 16.6 °C 1012.1 hPa North 3.5 km/h 5.6 km/h 88 % 0 mm
08:01 18.7 °C 16.1 °C 1012.1 hPa North 7.7 km/h 9.7 km/h 85 % 0 mm
08:06 18.8 °C 16 °C 1012.1 hPa NNE 2.1 km/h 5.6 km/h 84 % 0 mm
08:11 18.8 °C 16.3 °C 1012.1 hPa NNE 0.2 km/h 1.9 km/h 85 % 0 mm
08:16 18.8 °C 16.3 °C 1012.4 hPa NNE 0.2 km/h 3.7 km/h 85 % 0 mm
08:21 18.9 °C 16.3 °C 1012.4 hPa Calm     85 % 0 mm
08:26 18.9 °C 16.3 °C 1012.4 hPa NNW 0.3 km/h 1.9 km/h 85 % 0 mm
08:31 18.9 °C 16.4 °C 1012.4 hPa NNE 1.3 km/h 5.6 km/h 85 % 0 mm
08:36 18.9 °C 16.2 °C 1012.4 hPa North 4 km/h 5.6 km/h 84 % 0 mm
08:41 19 °C 16.2 °C 1012.1 hPa North 0.6 km/h 5.6 km/h 84 % 0 mm
08:46 19.1 °C 16.3 °C 1012.1 hPa NNE 3.5 km/h 5.6 km/h 84 % 0 mm
08:51 19.1 °C 16.3 °C 1012.1 hPa Calm   1.9 km/h 84 % 0 mm
08:56 19.2 °C 16.2 °C 1012.1 hPa NNE 0.5 km/h 1.9 km/h 83 % 0 mm
09:01 19.3 °C 16.3 °C 1012.1 hPa NNE 0.8 km/h 5.6 km/h 83 % 0 mm
09:06 19.3 °C 16.2 °C 1012.1 hPa North 1.1 km/h 5.6 km/h 82 % 0 mm
09:11 19.5 °C 16.2 °C 1012.1 hPa NW 1.8 km/h 3.7 km/h 81 % 0 mm
09:17 19.6 °C 16.2 °C 1012.1 hPa NNE 1.6 km/h 7.4 km/h 81 % 0 mm
09:22 19.7 °C 16.6 °C 1012.1 hPa North 3.2 km/h 7.4 km/h 82 % 0 mm
09:27 19.8 °C 16.5 °C 1012.4 hPa WNW 0.5 km/h 5.6 km/h 81 % 0 mm
09:32 19.9 °C 16.6 °C 1012.4 hPa NW 1.8 km/h 5.6 km/h 81 % 0 mm
09:37 20.1 °C 16.6 °C 1012.4 hPa North 3.5 km/h 6.4 km/h 80 % 0 mm
09:42 20.3 °C 16.5 °C 1012.4 hPa NNE 4 km/h 7.4 km/h 79 % 0 mm
09:47 20.6 °C 17 °C 1012.4 hPa NW 1.1 km/h 3.7 km/h 80 % 0 mm
09:52 20.9 °C 17.4 °C 1012.4 hPa NNE 3.1 km/h 7.4 km/h 80 % 0 mm
09:57 21.4 °C 17.2 °C 1012.4 hPa NNE 5.5 km/h 7.4 km/h 77 % 0 mm
10:02 21.9 °C 16.8 °C 1012.4 hPa NNE 1.4 km/h 5.6 km/h 73 % 0 mm
10:07 22.2 °C 17.1 °C 1012.4 hPa NNE 2.4 km/h 6.4 km/h 73 % 0 mm
10:12 22.3 °C 17.3 °C 1012.4 hPa North 4.3 km/h 7.4 km/h 73 % 0 mm
10:17 22.4 °C 16.9 °C 1012.1 hPa North 4.3 km/h 5.6 km/h 71 % 0 mm
10:22 22.4 °C 16.9 °C 1012.4 hPa NNE 5.1 km/h 7.4 km/h 71 % 0 mm
10:27 22.4 °C 16.7 °C 1012.1 hPa NNW 6 km/h 7.4 km/h 70 % 0 mm
10:32 22.4 °C 16.9 °C 1012.1 hPa NE 3.7 km/h 7.4 km/h 71 % 0 mm
10:37 22.7 °C 17.8 °C 1012.1 hPa NNE 0.6 km/h 1.9 km/h 74 % 0 mm
10:42 22.9 °C 17.1 °C 1012.1 hPa NNE 6.4 km/h 9.3 km/h 70 % 0 mm
10:47 23.2 °C 17 °C 1012.1 hPa ENE 4 km/h 13 km/h 68 % 0 mm
10:52 23.6 °C 17.8 °C 1012.1 hPa North 7.7 km/h 11.1 km/h 70 % 0 mm
10:57 24 °C 17.5 °C 1012.1 hPa North 0.8 km/h 5.6 km/h 67 % 0 mm
11:02 24.4 °C 17.4 °C 1012.1 hPa NNE 3.5 km/h 9.3 km/h 65 % 0 mm
11:07 24.7 °C 17.4 °C 1012.4 hPa NNE 6.1 km/h 9.3 km/h 64 % 0 mm
11:12 25.1 °C 17.6 °C 1012.4 hPa NW 1.3 km/h 5.6 km/h 63 % 0 mm
11:17 25.5 °C 18.2 °C 1012.1 hPa North 2.1 km/h 6.4 km/h 64 % 0 mm
11:22 25.8 °C 17.5 °C 1012.1 hPa Calm   3.7 km/h 60 % 0 mm
11:27 26.2 °C 18.3 °C 1012.1 hPa North 1.9 km/h 6.4 km/h 62 % 0 mm
11:33 26.4 °C 18 °C 1012.1 hPa NNE 6.4 km/h 7.4 km/h 60 % 0 mm
11:38 26.6 °C 17.7 °C 1012.1 hPa North 4.7 km/h 7.4 km/h 58 % 0 mm
11:43 26.8 °C 17.8 °C 1012.1 hPa WNW 2.3 km/h 6.4 km/h 58 % 0 mm
11:48 26.9 °C 18 °C 1012.1 hPa NNE 6.6 km/h 7.4 km/h 58 % 0 mm
11:50 27 °C 17.5 °C 1011.7 hPa North 1.6 km/h 3.7 km/h 56 % 0 mm
11:55 27.2 °C 18.2 °C 1011.7 hPa Calm   5.6 km/h 58 % 0 mm
12:00 27.4 °C 17.8 °C 1011.7 hPa WNW 2.9 km/h 5.6 km/h 56 % 0 mm
12:05 27.4 °C 17 °C 1011.7 hPa North 6 km/h 9.7 km/h 53 % 0 mm
12:10 27.6 °C 18.3 °C 1011.7 hPa North 3.2 km/h 9.7 km/h 57 % 0 mm
12:16 27.7 °C 17.8 °C 1011.7 hPa NNE 4.8 km/h 9.7 km/h 55 % 0 mm
12:21 27.8 °C 18.2 °C 1011.7 hPa Calm   6.4 km/h 56 % 0 mm
12:25 27.9 °C 17.8 °C 1011.7 hPa North 4.8 km/h 9.7 km/h 54 % 0 mm
12:31 27.9 °C 17.8 °C 1011.7 hPa NNE 8 km/h 11.3 km/h 54 % 0 mm
12:36 27.9 °C 18.1 °C 1011.7 hPa NNE 8 km/h 11.3 km/h 55 % 0 mm
12:40 27.9 °C 18 °C 1011.7 hPa NW 2.1 km/h 9.3 km/h 55 % 0 mm
12:45 28 °C 18.1 °C 1011.4 hPa NNW 3.9 km/h 7.4 km/h 55 % 0 mm
12:50 28.1 °C 17.9 °C 1011.4 hPa NW 1 km/h 7.4 km/h 54 % 0 mm
12:55 28.2 °C 18.3 °C 1011.4 hPa North 3.2 km/h 9.7 km/h 55 % 0 mm
13:01 28.2 °C 17.7 °C 1011.4 hPa NW 1.6 km/h 5.6 km/h 53 % 0 mm
13:06 28.2 °C 18 °C 1011.4 hPa NNW 1.6 km/h 8 km/h 54 % 0 mm
13:10 28.3 °C 18.1 °C 1011.4 hPa North 3.2 km/h 6.4 km/h 54 % 0 mm
13:15 28.3 °C 16.9 °C 1011.4 hPa NW 2.1 km/h 9.3 km/h 50 % 0 mm
13:20 28.6 °C 17.4 °C 1011.4 hPa NW 2.3 km/h 5.6 km/h 51 % 0 mm
13:25 28.6 °C 17.1 °C 1011.4 hPa West 7.7 km/h 9.7 km/h 50 % 0 mm
13:30 28.6 °C 16.2 °C 1011.4 hPa WNW 3.2 km/h 9.7 km/h 47 % 0 mm
13:35 28.7 °C 17.3 °C 1011.4 hPa NW 1.6 km/h 6.4 km/h 50 % 0 mm
13:41 28.8 °C 16.7 °C 1011.4 hPa NNW 1.6 km/h 8 km/h 48 % 0 mm
13:45 28.8 °C 16.7 °C 1011.4 hPa NW 1.6 km/h 8 km/h 48 % 0 mm
13:50 29 °C 17.5 °C 1011.1 hPa NNW 1.6 km/h 6.4 km/h 50 % 0 mm
13:55 29 °C 17.2 °C 1011.1 hPa North 3.2 km/h 9.7 km/h 49 % 0 mm
14:01 28.9 °C 16.2 °C 1011.1 hPa WSW 2.6 km/h 3.7 km/h 46 % 0 mm
14:06 29 °C 17.5 °C 1011.1 hPa NNE 0.3 km/h 5.6 km/h 50 % 0 mm
14:11 28.8 °C 17.1 °C 1011.1 hPa WNW 3.9 km/h 8 km/h 49 % 0 mm
14:16 28.8 °C 17.4 °C 1011.1 hPa WNW 4.5 km/h 8 km/h 50 % 0 mm
14:21 28.9 °C 16.2 °C 1011.1 hPa NW 0.8 km/h 5.6 km/h 46 % 0 mm
14:26 29.1 °C 16.9 °C 1011.1 hPa WNW 1.4 km/h 3.7 km/h 48 % 0 mm
14:31 29.1 °C 16.3 °C 1011.1 hPa West 1 km/h 5.6 km/h 46 % 0 mm
14:36 29 °C 15.5 °C 1011.1 hPa SSW 4.8 km/h 9.3 km/h 44 % 0 mm
14:41 28.9 °C 15.1 °C 1011.1 hPa WNW 4.3 km/h 11.1 km/h 43 % 0 mm
14:46 28.9 °C 15.1 °C 1011.1 hPa WNW 7.1 km/h 9.3 km/h 43 % 0 mm
14:51 28.9 °C 15.1 °C 1011.1 hPa WNW 4.7 km/h 8 km/h 43 % 0 mm
14:56 29 °C 15.2 °C 1011.1 hPa WNW 1.1 km/h 5.6 km/h 43 % 0 mm
15:01 29 °C 14.4 °C 1011.1 hPa NNW 1 km/h 5.6 km/h 41 % 0 mm
15:06 29 °C 15.5 °C 1011.1 hPa West 4.7 km/h 6.4 km/h 44 % 0 mm
15:11 29.1 °C 15.6 °C 1011.1 hPa WNW 3.9 km/h 9.3 km/h 44 % 0 mm
15:16 29 °C 14.1 °C 1011.1 hPa NNW 0.8 km/h 7.4 km/h 40 % 0 mm
15:21 28.9 °C 13.2 °C 1011.1 hPa West 6.9 km/h 11.3 km/h 38 % 0 mm
15:26 28.9 °C 14.7 °C 1011.1 hPa West 2.1 km/h 14.8 km/h 42 % 0 mm
15:31 28.9 °C 14.7 °C 1011.1 hPa West 8.4 km/h 9.3 km/h 42 % 0 mm
15:37 28.9 °C 15.1 °C 1011.1 hPa WNW 5 km/h 8 km/h 43 % 0 mm
15:42 28.9 °C 15.1 °C 1011.1 hPa West 5 km/h 13 km/h 43 % 0 mm
15:47 29 °C 15.2 °C 1011.1 hPa North 1.9 km/h 5.6 km/h 43 % 0 mm
15:52 29 °C 15.9 °C 1011.1 hPa WNW 3.7 km/h 5.6 km/h 45 % 0 mm
15:57 28.8 °C 13.9 °C 1011.1 hPa West 4.2 km/h 14.8 km/h 40 % 0 mm
16:02 28.7 °C 14.1 °C 1011.1 hPa West 3.4 km/h 9.3 km/h 41 % 0 mm
16:07 28.6 °C 14.1 °C 1011.1 hPa WNW 5.8 km/h 9.3 km/h 41 % 0 mm
16:12 28.5 °C 13.6 °C 1011.1 hPa WNW 3.9 km/h 13 km/h 40 % 0 mm
16:17 28.4 °C 15 °C 1011.1 hPa WNW 6.6 km/h 9.3 km/h 44 % 0 mm
16:27 28.3 °C 14.8 °C 1011.1 hPa NW 1.3 km/h 5.6 km/h 44 % 0 mm
16:32 28.3 °C 15.2 °C 1011.4 hPa WNW 2.9 km/h 5.6 km/h 45 % 0 mm
16:37 28.2 °C 14.8 °C 1011.4 hPa WNW 3.2 km/h 13 km/h 44 % 0 mm
16:42 28.1 °C 14.3 °C 1011.1 hPa NNW 3.4 km/h 9.3 km/h 43 % 0 mm
16:43 28.1 °C 14.7 °C 1011.1 hPa WNW 4.5 km/h 7.4 km/h 44 % 0 mm
16:48 27.9 °C 13.8 °C 1011.1 hPa WNW 4.7 km/h 9.7 km/h 42 % 0 mm
16:53 27.8 °C 13.7 °C 1011.1 hPa West 1.4 km/h 7.4 km/h 42 % 0 mm
16:58 27.7 °C 14 °C 1011.1 hPa WNW 1.9 km/h 7.4 km/h 43 % 0 mm
17:03 27.7 °C 13.2 °C 1011.1 hPa WNW 6.1 km/h 9.3 km/h 41 % 0 mm
17:08 27.6 °C 13.8 °C 1011.1 hPa NNW 1.6 km/h 5.6 km/h 43 % 0 mm
17:13 27.3 °C 13.7 °C 1011.1 hPa NW 2.3 km/h 9.3 km/h 43 % 0 mm
17:18 27.2 °C 13.9 °C 1011.1 hPa WNW 2.1 km/h 5.6 km/h 44 % 0 mm
17:23 27.1 °C 14.5 °C 1011.4 hPa West 3.5 km/h 5.6 km/h 46 % 0 mm
17:28 27 °C 13 °C 1011.4 hPa NW 1.9 km/h 11.1 km/h 42 % 0 mm
17:33 26.9 °C 13.7 °C 1011.4 hPa NW 5 km/h 9.3 km/h 44 % 0 mm
17:38 26.8 °C 13.9 °C 1011.4 hPa WNW 1 km/h 5.6 km/h 45 % 0 mm
17:44 26.7 °C 14.4 °C 1011.4 hPa NNW 3.4 km/h 3.7 km/h 47 % 0 mm
17:49 26.5 °C 13.9 °C 1011.4 hPa WNW 1.1 km/h 7.4 km/h 46 % 0 mm
17:54 26.4 °C 14.5 °C 1011.4 hPa NW 5 km/h 6.4 km/h 48 % 0 mm
17:59 26.3 °C 13.7 °C 1011.4 hPa West 2.9 km/h 8 km/h 46 % 0 mm
18:04 26.1 °C 13.6 °C 1011.1 hPa WNW 0.6 km/h 5.6 km/h 46 % 0 mm
18:09 25.9 °C 13.8 °C 1011.4 hPa WNW 2.1 km/h 5.6 km/h 47 % 0 mm
18:14 25.8 °C 13.6 °C 1011.1 hPa North 2.1 km/h 7.4 km/h 47 % 0 mm
18:19 25.6 °C 14.4 °C 1011.1 hPa NNE 3.5 km/h 5.6 km/h 50 % 0 mm
18:24 25.4 °C 15.1 °C 1011.4 hPa North 4.8 km/h 5.6 km/h 53 % 0 mm
18:29 25.2 °C 15.2 °C 1011.4 hPa WNW 1.1 km/h 5.6 km/h 54 % 0 mm
18:30 25.2 °C 15.2 °C 1011.4 hPa NNE 1.8 km/h 5.6 km/h 54 % 0 mm
18:35 24.9 °C 14.7 °C 1011.4 hPa NNE 1.6 km/h 7.4 km/h 53 % 0 mm
18:40 24.8 °C 14.6 °C 1011.4 hPa North 3.9 km/h 7.4 km/h 53 % 0 mm
18:45 24.6 °C 14.1 °C 1011.4 hPa NNE 4.3 km/h 11.1 km/h 52 % 0 mm
18:50 24.5 °C 14.6 °C 1011.4 hPa West 1.3 km/h 5.6 km/h 54 % 0 mm
18:55 24.3 °C 14.1 °C 1011.4 hPa North 2.9 km/h 7.4 km/h 53 % 0 mm
19:00 24.2 °C 14.3 °C 1011.4 hPa North 2.4 km/h 7.4 km/h 54 % 0 mm
19:05 24.1 °C 14.5 °C 1011.4 hPa NNW 1.1 km/h 3.7 km/h 55 % 0 mm
19:10 24 °C 14.1 °C 1011.4 hPa North 2.9 km/h 9.3 km/h 54 % 0 mm
19:15 23.9 °C 14 °C 1011.4 hPa Calm   3.2 km/h 54 % 0 mm
19:20 23.8 °C 14.2 °C 1011.4 hPa NNE 0.6 km/h 3.7 km/h 55 % 0 mm
19:25 23.7 °C 14.4 °C 1011.4 hPa North 0.8 km/h 3.7 km/h 56 % 0 mm
19:30 23.4 °C 14.2 °C 1011.4 hPa NNE 5 km/h 11.1 km/h 56 % 0 mm
19:35 23.3 °C 14 °C 1011.7 hPa NNE 0.2 km/h 1.9 km/h 56 % 0 mm
19:40 23.2 °C 14.4 °C 1011.7 hPa NNE 1.9 km/h 3.7 km/h 58 % 0 mm
19:45 23.1 °C 14.4 °C 1011.7 hPa NNE 2.1 km/h 5.6 km/h 58 % 0 mm
19:50 23.1 °C 14.3 °C 1011.7 hPa WNW 0.3 km/h 1.9 km/h 58 % 0 mm
19:55 23 °C 14.6 °C 1011.7 hPa NNE 1.8 km/h 5.6 km/h 59 % 0 mm
20:00 22.9 °C 14.4 °C 1011.7 hPa Calm     59 % 0 mm
20:05 22.8 °C 14.4 °C 1011.7 hPa North 0.8 km/h 5.6 km/h 59 % 0 mm
20:10 22.7 °C 14.6 °C 1012.1 hPa NNE 1.1 km/h 3.7 km/h 60 % 0 mm
20:15 22.6 °C 14.4 °C 1012.1 hPa NNE 1.9 km/h 3.7 km/h 60 % 0 mm
20:20 22.6 °C 14.4 °C 1012.1 hPa Calm     60 % 0 mm
20:25 22.4 °C 14.6 °C 1012.1 hPa NNE 0.2 km/h 1.9 km/h 61 % 0 mm
20:30 22.4 °C 14.7 °C 1012.1 hPa NNE 3.1 km/h 3.7 km/h 62 % 0 mm
20:35 22.3 °C 14.9 °C 1012.4 hPa NNE 3.2 km/h 5.6 km/h 63 % 0 mm
20:41 22.2 °C 14.8 °C 1012.4 hPa NNE 1.6 km/h 9.7 km/h 63 % 0 mm
20:46 22.1 °C 14.7 °C 1012.4 hPa Calm   1.9 km/h 63 % 0 mm
20:51 22.1 °C 14.9 °C 1012.4 hPa Calm   3.7 km/h 64 % 0 mm
20:56 22 °C 15.3 °C 1012.4 hPa Calm     66 % 0 mm
21:01 21.9 °C 15.5 °C 1012.4 hPa Calm     67 % 0 mm
21:06 21.8 °C 15.4 °C 1012.4 hPa Calm     67 % 0 mm
21:11 21.7 °C 15.5 °C 1012.8 hPa Calm   1.6 km/h 68 % 0 mm
21:16 21.5 °C 15.3 °C 1012.8 hPa Calm     68 % 0 mm
21:21 21.3 °C 15.2 °C 1012.8 hPa Calm     68 % 0 mm
21:26 21.2 °C 15.3 °C 1012.8 hPa Calm     69 % 0 mm
21:31 21 °C 15.1 °C 1012.8 hPa Calm     69 % 0 mm
21:36 20.8 °C 15.1 °C 1012.8 hPa Calm     70 % 0 mm
21:41 20.6 °C 14.9 °C 1012.4 hPa Calm     70 % 0 mm
21:46 20.4 °C 15 °C 1012.8 hPa Calm     71 % 0 mm
21:51 20.3 °C 15.1 °C 1012.4 hPa Calm     72 % 0 mm
21:56 20.1 °C 15.1 °C 1012.4 hPa Calm   1.6 km/h 73 % 0 mm
22:01 19.9 °C 15.2 °C 1012.4 hPa Calm     74 % 0 mm
22:06 19.8 °C 15 °C 1012.4 hPa North 0.3 km/h 1.6 km/h 74 % 0 mm
22:11 19.6 °C 15.1 °C 1012.4 hPa Calm   1.6 km/h 75 % 0 mm
22:16 19.4 °C 15.1 °C 1012.4 hPa North 0.2 km/h 1.9 km/h 76 % 0 mm
22:21 19.3 °C 14.9 °C 1012.4 hPa Calm     76 % 0 mm
22:26 19.2 °C 15.1 °C 1012.4 hPa Calm     77 % 0 mm
22:31 19 °C 15.1 °C 1012.4 hPa Calm     78 % 0 mm
22:36 18.9 °C 14.9 °C 1012.4 hPa NNW 1.3 km/h 1.9 km/h 78 % 0 mm
22:41 18.8 °C 15.1 °C 1012.4 hPa NNW 2.1 km/h 3.7 km/h 79 % 0 mm
22:46 18.7 °C 14.9 °C 1012.4 hPa Calm   1.9 km/h 79 % 0 mm
22:51 18.6 °C 15.1 °C 1012.4 hPa NNW 0.2 km/h   80 % 0 mm
22:56 18.5 °C 15 °C 1012.8 hPa NNW 1.3 km/h 3.7 km/h 80 % 0 mm
23:01 18.4 °C 15.1 °C 1012.4 hPa NNW 1.3 km/h 3.7 km/h 81 % 0 mm
23:06 18.3 °C 15.2 °C 1012.4 hPa NNW 0.2 km/h 1.9 km/h 82 % 0 mm
23:11 18.2 °C 15.1 °C 1012.8 hPa NNW 0.3 km/h 1.9 km/h 82 % 0 mm
23:16 18.2 °C 15.2 °C 1012.8 hPa NNW 0.2 km/h 3.7 km/h 83 % 0 mm
23:21 18.1 °C 15.4 °C 1012.8 hPa NE 4.7 km/h 6.4 km/h 84 % 0 mm
23:26 18.1 °C 15.2 °C 1012.8 hPa North 7.6 km/h 14.8 km/h 83 % 0 mm
23:31 18.3 °C 15.2 °C 1012.8 hPa NNE 6 km/h 16.1 km/h 82 % 0 mm
23:36 18.4 °C 15.1 °C 1013.1 hPa North 4.7 km/h 9.3 km/h 81 % 0 mm
23:41 18.7 °C 15.2 °C 1013.1 hPa NNW 4.8 km/h 13 km/h 80 % 0 mm
23:46 18.9 °C 14.9 °C 1013.1 hPa North 6.1 km/h 13 km/h 78 % 0 mm
23:51 19.1 °C 14.9 °C 1013.1 hPa North 6 km/h 6.4 km/h 77 % 0 mm
23:56 19.3 °C 15.2 °C 1013.1 hPa North 5.6 km/h 11.1 km/h 77 % 0 mm
Crab Meadow Weather
Compliments of Weather Underground - 3 mb

Script developed by  Jim McMurry - jmcmurry@mwt.net Adapted for the template by  Wim van der Kuil - Leuven-Template.eu

Heat Index: The heat index combines air temperature and dew point in an attempt to determine the human-perceived equivalent temperature - how hot it feels. The human body normally cools itself by sweating, which evaporates and carries heat away from the body. However, when the relative humidity is high the evaporation rate is reduced, so heat is removed from the body at a lower rate causing it to retain more heat than it would in dry air.